{"data":{"norad_id":56465,"intl_designator":"2023-064T","name":"STARLINK-6054","alt_names":[],"object_type":"PAYLOAD","status":"ACTIVE","operator":null,"country":"US","launch_date":"2023-05-10","launch_site_code":"AFWTR","launch_vehicle":null,"mission":null,"orbit_class":"UNKNOWN","rcs_meters":null,"size_class":null,"mass_kg":null,"dimensions":null,"purposes":["comms"],"wikipedia_slug":null,"has_3d_model":false,"image_url":null,"decayed_at":null,"tle_current":{"epoch":"2026-05-25T01:11:32.640576Z","epoch_age_seconds":84949,"freshness":"FRESH","line1":"1 56465U 23064T   26145.04968334  .00000297  00000+0  32694-4 0  9991","line2":"2 56465  69.9990 271.7622 0003192 270.8455  89.2338 14.98332129167675","mean_motion":14.98332129,"eccentricity":0.0003192,"inclination_deg":69.999,"raan_deg":271.7622,"arg_perigee_deg":270.8455,"mean_anomaly_deg":89.2338,"bstar":3.2694e-5,"rev_number":16767,"period_min":96.106862565983,"perigee_km":569.83080772608,"apogee_km":574.26780666459,"semimajor_km":6950.1863071953,"source":"CELESTRAK","updated_at":"2026-05-25T13:38:18.069721Z"}}}